This is the latest recevied weather packets stored in our database for station/object HS9UAC-10. If no packets are shown the sender has not sent any weather packets the latest 10 day(s).
| Time | Temp. | Humidity | Pressure | Rain* | Wind** | Luminosity | Snow |
|---|---|---|---|---|---|---|---|
| 1777924296 | 33.33° C | 78% | 1007 hPa | - | - | 0 W/m² | - |
| 1777923371 | 33.33° C | 77% | 1007 hPa | - | - | 0 W/m² | - |
| 1777922447 | 34.44° C | 74% | 1007 hPa | - | - | 0 W/m² | - |
| 1777921522 | 33.89° C | 80% | 1008 hPa | - | - | 0 W/m² | - |
| 1777920597 | 33.89° C | 77% | 1008 hPa | - | - | 0 W/m² | - |
| 1777919399 | 34.44° C | 73% | 1008 hPa | - | - | 0 W/m² | - |
| 1777918475 | 35° C | 73% | 1008 hPa | - | - | 0 W/m² | - |
| 1777917550 | 35° C | 75% | 1008 hPa | - | - | 0 W/m² | - |
| 1777916625 | 35° C | 75% | 1008 hPa | - | - | 0 W/m² | - |
| 1777915701 | 35° C | 73% | 1008 hPa | - | - | 0 W/m² | - |
| 1777914776 | 34.44° C | 75% | 1008 hPa | - | - | 0 W/m² | - |
| 1777913852 | 35° C | 72% | 1008 hPa | - | - | 0 W/m² | - |
| 1777912927 | 35.56° C | 71% | 1008 hPa | - | - | 0 W/m² | - |
| 1777912002 | 35.56° C | 69% | 1009 hPa | - | - | 0 W/m² | - |
| 1777911078 | 35.56° C | 68% | 1009 hPa | - | - | 0 W/m² | - |
| 1777910153 | 36.11° C | 67% | 1009 hPa | - | - | 0 W/m² | - |
| 1777909229 | 36.11° C | 65% | 1009 hPa | - | - | 0 W/m² | - |
| 1777908304 | 36.67° C | 64% | 1008 hPa | - | - | 0 W/m² | - |
| 1777907380 | 36.67° C | 63% | 1008 hPa | - | - | 0 W/m² | - |
| 1777906455 | 36.67° C | 63% | 1008 hPa | - | - | 0 W/m² | - |
| 1777905531 | 36.67° C | 62% | 1008 hPa | - | - | 0 W/m² | - |
| 1777904606 | 37.22° C | 61% | 1008 hPa | - | - | 0 W/m² | - |
| 1777903681 | 37.22° C | 61% | 1008 hPa | - | - | 0 W/m² | - |
| 1777902606 | 36.67° C | 62% | 1008 hPa | - | - | 0 W/m² | - |
| 1777901675 | 36.11° C | 63% | 1007 hPa | - | - | 0 W/m² | - |
* Rain since midnight (hover to see other rain measurements)
** Current wind speed in m/s (hover to see current wind gust speed)